Weather reports worldwide

Advertisment
Sheffield, United Kingdom (99107): temperature & dewpoint: 09.12.2019 17:00:00 - 15.12.2019 17:00:00 (GMT)Sheffield, United Kingdom (99107): sunshine duration: 09.12.2019 17:00:00 - 15.12.2019 17:00:00 (GMT)Sheffield, United Kingdom (99107): precipitation: 09.12.2019 17:00:00 - 15.12.2019 17:00:00 (GMT)
Date & Time tt [°C] td [°C] sd [min] rr [mm]
15.12.2019 17:00:00 4,2 2,0 0 0,2
15.12.2019 16:00:00 4,8 1,9 0 0,0
15.12.2019 15:00:00 4,6 2,1 0 0,0
15.12.2019 14:00:00 5,3 1,0 18 0,0
15.12.2019 13:00:00 5,2 0,4 36 0,0
15.12.2019 12:00:00 5,1 -0,2 54 0,0
15.12.2019 11:00:00 5,0 0,0 60 0,0
15.12.2019 10:00:00 4,3 -0,2 30 0,0
15.12.2019 09:00:00 3,8 -0,6 0 0,0
15.12.2019 08:00:00 3,9 -0,8 0 0,0
15.12.2019 07:00:00 3,9 -1,0 0 0,0
15.12.2019 06:00:00 3,8 -0,6 0 0,0
15.12.2019 05:00:00 3,6 -0,3 0 0,0
15.12.2019 04:00:00 3,7 0,3 0 0,0
15.12.2019 03:00:00 4,3 1,1 0 0,0
15.12.2019 02:00:00 4,6 2,0 0 0,2
15.12.2019 01:00:00 4,1 2,9 0 0,0
15.12.2019 00:00:00 3,8 2,7 - 0,4
14.12.2019 23:00:00 3,7 2,7 0 0,0
14.12.2019 22:00:00 2,7 1,6 0 0,0
14.12.2019 21:00:00 3,1 1,5 0 1,0
14.12.2019 20:00:00 4,2 0,1 0 0,2
14.12.2019 19:00:00 4,6 -0,1 0 0,0
14.12.2019 18:00:00 4,2 -0,4 0 0,0
14.12.2019 17:00:00 4,3 -0,5 0 0,0
14.12.2019 16:00:00 4,3 -0,7 0 0,0
14.12.2019 15:00:00 4,4 -0,2 18 0,0
14.12.2019 14:00:00 4,6 -0,3 48 0,0
14.12.2019 13:00:00 4,7 0,1 54 0,0
14.12.2019 12:00:00 4,0 1,0 24 0,2
14.12.2019 11:00:00 3,8 1,4 0 0,4
14.12.2019 10:00:00 4,6 0,3 0 0,0
14.12.2019 09:00:00 4,1 -0,7 0 0,0
14.12.2019 08:00:00 4,2 0,0 0 0,0
14.12.2019 07:00:00 3,8 0,5 0 0,0
14.12.2019 06:00:00 3,6 1,3 0 0,6
14.12.2019 05:00:00 3,7 1,3 0 0,2
14.12.2019 04:00:00 4,0 1,8 0 0,4
14.12.2019 03:00:00 3,6 1,9 0 3,0
14.12.2019 02:00:00 3,8 2,2 0 0,8
14.12.2019 01:00:00 4,7 2,2 0 0,2
14.12.2019 00:00:00 4,7 1,7 - 0,0
13.12.2019 23:00:00 5,0 1,5 0 0,0
13.12.2019 22:00:00 5,3 1,5 0 0,0
13.12.2019 21:00:00 5,4 1,7 0 0,0
13.12.2019 20:00:00 5,4 2,0 0 0,0
13.12.2019 19:00:00 5,2 2,9 0 0,2
13.12.2019 18:00:00 5,4 3,6 0 0,0
13.12.2019 17:00:00 5,5 4,1 0 0,8
13.12.2019 16:00:00 5,9 4,4 0 1,2
13.12.2019 15:00:00 6,0 4,5 0 1,2
13.12.2019 14:00:00 6,3 4,0 6 0,2
13.12.2019 13:00:00 6,3 4,2 0 0,0
13.12.2019 12:00:00 6,4 4,4 6 0,2
13.12.2019 11:00:00 5,9 4,3 0 1,2
13.12.2019 10:00:00 6,1 4,6 0 0,4
13.12.2019 09:00:00 5,4 3,4 0 0,2
13.12.2019 08:00:00 5,5 3,4 0 0,2
13.12.2019 07:00:00 5,3 3,1 0 0,0
13.12.2019 06:00:00 5,2 3,4 0 0,0
13.12.2019 05:00:00 5,3 3,8 0 0,0
13.12.2019 04:00:00 5,6 3,9 0 0,0
13.12.2019 03:00:00 5,5 4,0 0 0,2
13.12.2019 02:00:00 5,7 5,0 0 0,0
13.12.2019 01:00:00 5,3 4,1 0 0,0
13.12.2019 00:00:00 5,3 4,1 - 0,0
12.12.2019 23:00:00 6,5 4,6 0 0,0
12.12.2019 22:00:00 6,8 4,5 0 0,0
12.12.2019 21:00:00 7,1 5,3 0 0,0
12.12.2019 20:00:00 6,9 5,5 0 0,2
12.12.2019 19:00:00 6,7 5,8 0 0,0
12.12.2019 18:00:00 5,9 5,7 0 0,2
12.12.2019 17:00:00 5,6 5,4 0 1,4
12.12.2019 16:00:00 4,9 4,7 0 1,6
12.12.2019 15:00:00 4,6 4,3 0 1,2
12.12.2019 14:00:00 4,4 4,0 0 2,4
12.12.2019 13:00:00 4,5 4,0 0 0,4
12.12.2019 12:00:00 3,8 3,3 0 0,2
12.12.2019 11:00:00 2,9 2,3 0 0,0
12.12.2019 10:00:00 2,3 1,7 0 0,2
12.12.2019 09:00:00 2,0 1,1 0 0,0
12.12.2019 08:00:00 1,6 0,4 0 0,0
12.12.2019 07:00:00 2,1 0,2 0 0,0
12.12.2019 06:00:00 2,1 0,3 0 0,0
12.12.2019 05:00:00 2,0 0,2 0 0,0
12.12.2019 04:00:00 1,9 0,3 0 0,0
12.12.2019 03:00:00 1,9 0,1 0 0,0
12.12.2019 02:00:00 2,0 -0,2 0 0,0
12.12.2019 01:00:00 2,0 0,1 0 0,0
12.12.2019 00:00:00 2,2 0,1 - 0,0
11.12.2019 23:00:00 3,3 0,7 0 0,0
11.12.2019 22:00:00 3,4 1,1 0 0,0
11.12.2019 21:00:00 3,3 1,1 0 0,0
11.12.2019 20:00:00 2,8 1,0 0 0,0
11.12.2019 19:00:00 3,8 1,9 0 0,2
11.12.2019 18:00:00 4,0 1,9 0 0,0
11.12.2019 17:00:00 4,4 2,3 0 0,0
11.12.2019 16:00:00 4,4 2,5 0 0,2
11.12.2019 15:00:00 4,9 2,9 0 0,2
11.12.2019 14:00:00 5,1 2,8 0 0,2
11.12.2019 13:00:00 5,9 2,7 18 0,0
11.12.2019 12:00:00 5,9 2,5 54 0,0
11.12.2019 11:00:00 5,4 2,1 48 0,0
11.12.2019 10:00:00 4,8 1,8 0 0,0
11.12.2019 09:00:00 4,1 1,5 0 0,0
11.12.2019 08:00:00 4,0 1,5 0 0,0
11.12.2019 07:00:00 3,9 1,8 0 0,0
11.12.2019 06:00:00 2,4 0,9 0 0,0
11.12.2019 05:00:00 3,3 0,9 0 0,0
11.12.2019 04:00:00 4,5 1,4 0 0,0
11.12.2019 03:00:00 4,2 1,7 0 0,0
11.12.2019 02:00:00 4,3 1,3 0 0,0
11.12.2019 01:00:00 5,2 1,8 0 0,0
11.12.2019 00:00:00 5,6 2,2 - 0,0
10.12.2019 23:00:00 5,6 2,5 0 0,0
10.12.2019 22:00:00 5,9 2,5 0 0,0
10.12.2019 21:00:00 6,4 3,3 0 0,2
10.12.2019 20:00:00 6,5 3,9 0 0,2
10.12.2019 19:00:00 7,3 5,6 0 3,0
10.12.2019 18:00:00 8,0 6,2 0 6,8
10.12.2019 17:00:00 11,6 10,4 0 0,8
10.12.2019 16:00:00 11,7 9,9 0 0,2
10.12.2019 15:00:00 11,1 9,5 0 0,2
10.12.2019 14:00:00 10,2 9,0 0 0,0
10.12.2019 13:00:00 9,7 8,1 0 0,0
10.12.2019 12:00:00 8,9 7,6 0 0,4
10.12.2019 11:00:00 7,9 6,7 0 0,8
10.12.2019 10:00:00 7,1 5,9 0 0,8
10.12.2019 09:00:00 6,3 4,8 0 0,8
10.12.2019 08:00:00 5,9 3,8 0 0,2
10.12.2019 07:00:00 5,1 2,7 0 0,0
10.12.2019 06:00:00 4,6 2,3 0 0,0
10.12.2019 05:00:00 4,2 1,6 0 0,0
10.12.2019 04:00:00 4,0 1,1 0 0,0
10.12.2019 03:00:00 2,5 0,7 0 0,0
10.12.2019 02:00:00 2,3 0,7 0 0,0
10.12.2019 01:00:00 2,7 0,6 0 0,0
10.12.2019 00:00:00 2,5 0,8 - 0,0
09.12.2019 23:00:00 2,8 0,5 0 0,0
09.12.2019 22:00:00 3,7 1,3 0 0,0
09.12.2019 21:00:00 3,9 -0,4 0 0,0
09.12.2019 20:00:00 4,4 -0,6 0 0,0
09.12.2019 19:00:00 3,7 0,3 0 0,0
09.12.2019 18:00:00 3,5 -0,1 0 0,0
09.12.2019 17:00:00 4,2 -0,4 0 0,0

tt = temperature
td = dewpoint
sd = sunshine duration
rr = precipitation

Next stations